GW7109 Weather Reports


time (UTC)temp
C
wind
direction
speed
KPH
gust
KPH
rain 1hr
cm
rain 24hr
cm
rain mn
cm
humidity
%
barometer
mb
20260510153532 23 325 4.8 6.4 0.00 0.00 0.00 80 1021.1
20260510152522 23 33 3.2 6.4 0.00 0.00 0.00 79 1021.0
20260510151530 23 350 3.2 6.4 0.00 0.00 0.00 79 1021.0
20260510150523 22 48 0.0 1.6 0.00 0.00 0.00 81 1021.0
20260510145550 22 224 4.8 9.7 0.00 0.00 0.00 83 1021.0
20260510144526 22 137 6.4 9.7 0.00 0.00 0.00 85 1021.0
20260510143522 21 185 4.8 8.0 0.00 0.00 0.00 89 1021.0
20260510142525 20 167 4.8 9.7 0.00 0.00 0.00 94 1021.0
20260510141542 18 166 6.4 9.7 0.00 0.00 0.00 97 1021.1
20260510140547 18 168 4.8 6.4 0.00 0.00 0.00 100 1021.2
20260510135522 18 162 1.6 4.8 0.00 0.00 0.00 100 1021.3
20260510134547 17 152 0.0 3.2 0.00 0.00 0.00 100 1021.1
20260510133524 17 133 1.6 4.8 0.00 0.00 0.00 100 1021.1
20260510132529 16 137 0.0 3.2 0.00 0.00 0.00 100 1021.0
20260510131524 16 121 3.2 4.8 0.00 0.00 0.00 100 1021.0
20260510130528 16 157 1.6 4.8 0.00 0.00 0.00 100 1020.9
20260510125525 15 204 0.0 1.6 0.00 0.00 0.00 100 1021.0
20260510124549 15 278 0.0 4.8 0.00 0.00 0.00 100 1020.9
20260510123524 15 277 0.0 1.6 0.00 0.00 0.00 100 1020.8
20260510122521 14 158 0.0 3.2 0.00 0.00 0.00 100 1020.6
20260510121525 14 160 3.2 8.0 0.00 0.00 0.00 100 1020.3
20260510120523 13 151 6.4 8.0 0.00 0.00 0.00 100 1020.3
20260510115546 13 159 6.4 8.0 0.00 0.00 0.00 100 1020.1
20260510114542 13 164 3.2 4.8 0.00 0.00 0.00 100 1020.0
20260510113526 13 152 3.2 4.8 0.00 0.00 0.00 100 1019.8
20260510112522 13 154 4.8 6.4 0.00 0.00 0.00 100 1019.6
20260510111529 13 150 0.0 3.2 0.00 0.00 0.00 100 1019.4
20260510110522 13 0.0 0.0 0.00 0.00 0.00 100 1019.3
20260510105609 13 154 1.6 3.2 0.00 0.00 0.00 100 1019.2
20260510104524 13 128 1.6 3.2 0.00 0.00 0.00 100 1019.0
20260510103530 13 0.0 0.0 0.00 0.00 0.00 100 1018.9
20260510102544 13 161 1.6 3.2 0.00 0.00 0.00 100 1018.7
20260510101521 13 166 1.6 4.8 0.00 0.00 0.00 100 1018.6
20260510100526 13 0.0 0.0 0.00 0.00 0.00 100 1018.5
20260510095520 13 167 1.6 3.2 0.00 0.00 0.00 100 1018.2
20260510094525 13 0.0 0.0 0.00 0.00 0.00 100 1018.2
20260510093544 14 0.0 0.0 0.00 0.00 0.00 100 1018.1
20260510092527 14 0.0 0.0 0.00 0.00 0.00 100 1018.1
20260510091522 14 0.0 0.0 0.00 0.00 0.00 100 1018.1
20260510090527 14 0.0 0.0 0.00 0.00 0.00 100 1018.0
20260510085522 14 0.0 0.0 0.00 0.00 0.00 100 1018.1
20260510084530 15 0.0 0.0 0.00 0.00 0.00 100 1018.1
20260510083523 15 0.0 0.0 0.00 0.00 0.00 100 1018.0
20260510082530 15 0.0 0.0 0.00 0.00 0.00 100 1017.8
20260510081525 15 0.0 0.0 0.00 0.00 0.00 100 1017.8
20260510080521 15 0.0 0.0 0.00 0.00 0.00 100 1017.5
20260510075525 15 0.0 0.0 0.00 0.00 0.00 100 1017.5
20260510074520 15 0.0 0.0 0.00 0.00 0.00 100 1017.4
20260510073528 15 0.0 0.0 0.00 0.00 0.00 100 1017.4
20260510072520 15 0.0 0.0 0.00 0.00 0.00 99 1017.3
20260510071528 15 0.0 0.0 0.00 0.00 0.00 99 1017.3
20260510070522 15 152 1.6 3.2 0.00 0.00 0.00 99 1017.4
20260510065528 15 156 1.6 6.4 0.00 0.00 0.00 99 1017.4
20260510064522 16 0.0 0.0 0.00 0.00 0.00 99 1017.4
20260510063528 16 0.0 0.0 0.00 0.00 0.00 98 1017.4
20260510062524 16 0.0 0.0 0.00 0.00 0.00 98 1017.3
20260510061529 16 0.0 0.0 0.00 0.00 0.00 98 1017.3
20260510060524 16 0.0 0.0 0.00 0.00 0.00 98 1017.2
20260510055522 16 0.0 0.0 0.00 0.00 0.00 98 1017.3
20260510054525 16 0.0 0.0 0.00 0.00 0.00 98 1017.3
20260510053519 16 0.0 1.6 0.00 0.00 0.00 97 1017.4
20260510052525 17 0.0 0.0 0.00 0.00 0.00 97 1017.3
20260510051602 17 0.0 0.0 0.00 0.00 0.00 97 1017.3
20260510050527 17 0.0 0.0 0.00 0.00 0.00 96 1017.3
20260510045523 17 0.0 1.6 0.00 0.00 0.00 97 1017.3
20260510044528 17 225 1.6 3.2 0.00 0.00 0.00 96 1017.3
20260510043525 18 227 3.2 4.8 0.00 0.00 0.00 96 1017.3
20260510042527 18 0.0 0.0 0.00 0.00 0.00 95 1017.5
20260510041523 18 222 4.8 9.7 0.00 0.00 0.00 95 1017.5
20260510040529 18 229 3.2 4.8 0.00 0.00 0.00 95 1017.6
20260510035525 18 228 4.8 6.4 0.00 0.00 0.00 94 1017.5
20260510034520 18 224 6.4 9.7 0.00 0.00 0.00 94 1017.5
20260510033526 18 230 6.4 9.7 0.00 0.00 0.00 94 1017.6
20260510032520 18 228 6.4 11.3 0.00 0.00 0.00 94 1017.5
20260510031527 18 205 3.2 6.4 0.00 0.00 0.00 93 1017.5
20260510030521 18 181 3.2 6.4 0.00 0.00 0.00 93 1017.3
20260510025529 18 169 3.2 9.7 0.00 0.00 0.00 92 1017.2
20260510024521 18 165 9.7 12.9 0.00 0.00 0.00 92 1017.0
20260510023527 18 164 4.8 6.4 0.00 0.00 0.00 93 1016.9
20260510022547 18 132 3.2 4.8 0.00 0.00 0.00 92 1016.7
20260510021529 18 216 0.0 3.2 0.00 0.00 0.00 91 1016.5
20260510020623 18 125 0.0 1.6 0.00 0.00 0.00 90 1016.2
20260510015532 19 0.0 0.0 0.00 0.00 0.00 89 1016.0
20260510014525 19 162 0.0 3.2 0.00 0.00 0.00 88 1015.7
20260510013550 20 0.0 0.0 0.00 0.00 0.00 86 1015.4
20260510012527 20 0.0 0.0 0.00 0.00 0.00 85 1015.3
20260510011521 20 0.0 0.0 0.00 0.00 0.00 83 1015.1
20260510010528 21 0.0 0.0 0.00 0.00 0.00 81 1014.9
20260510005524 22 0.0 0.0 0.00 0.00 0.00 79 1014.8
20260510004530 22 0.0 0.0 0.00 0.00 0.00 78 1014.6
20260510003524 23 0.0 0.0 0.00 0.00 0.00 75 1014.5
20260510002530 23 215 0.0 1.6 0.00 0.00 0.00 72 1014.4
20260510001523 24 221 3.2 4.8 0.00 0.00 0.00 70 1014.3
20260510000534 25 217 3.2 6.4 0.00 0.00 0.00 68 1014.2
20260509235524 25 215 3.2 6.4 0.00 0.00 0.00 66 1014.2
20260509234530 26 210 1.6 6.4 0.00 0.00 0.00 66 1014.0
20260509233528 26 185 0.0 1.6 0.00 0.00 0.00 64 1014.1
20260509232530 26 227 1.6 3.2 0.00 0.00 0.00 61 1014.0
20260509231524 26 215 1.6 4.8 0.00 0.00 0.00 60 1014.1
20260509230521 25 236 1.6 4.8 0.00 0.00 0.00 57 1014.1
20260509225700 26 297 4.8 6.4 0.00 0.00 0.00 55 1014.0
20260509224520 25 262 3.2 4.8 0.00 0.00 0.00 56 1013.9
20260509223528 26 218 1.6 4.8 0.00 0.00 0.00 55 1013.7
20260509222521 26 281 3.2 8.0 0.00 0.00 0.00 55 1013.8
20260509221528 26 291 3.2 4.8 0.00 0.00 0.00 56 1013.9
20260509220522 26 274 6.4 8.0 0.00 0.00 0.00 54 1013.7
20260509215527 26 290 3.2 6.4 0.00 0.00 0.00 54 1013.8
20260509214524 26 288 4.8 8.0 0.00 0.00 0.00 54 1013.6
20260509213549 26 284 6.4 11.3 0.00 0.00 0.00 53 1013.7
20260509212524 26 241 6.4 9.7 0.00 0.00 0.00 54 1013.6
20260509211549 26 288 6.4 11.3 0.00 0.00 0.00 52 1013.8
20260509210526 26 302 8.0 11.3 0.00 0.00 0.00 54 1013.8
20260509205520 26 299 6.4 14.5 0.00 0.00 0.00 55 1013.8
20260509204526 26 244 8.0 12.9 0.00 0.00 0.00 55 1013.9
20260509203521 27 226 4.8 11.3 0.00 0.00 0.00 52 1014.0
20260509202528 26 54 3.2 6.4 0.00 0.00 0.00 56 1014.1
20260509201522 26 300 6.4 11.3 0.00 0.00 0.00 57 1014.3
20260509200553 25 303 6.4 9.7 0.00 0.00 0.00 59 1014.4
20260509195523 26 289 8.0 11.3 0.00 0.00 0.00 57 1014.3
20260509194530 26 323 4.8 8.0 0.00 0.00 0.00 57 1014.3
20260509193523 26 13 8.0 12.9 0.00 0.00 0.00 59 1014.2
20260509192532 26 350 3.2 6.4 0.00 0.00 0.00 60 1014.3
20260509191525 26 293 6.4 11.3 0.00 0.00 0.00 60 1014.4
20260509190531 26 207 4.8 9.7 0.00 0.00 0.00 58 1014.6
20260509185528 26 225 4.8 11.3 0.00 0.00 0.00 59 1014.7
20260509184520 25 276 8.0 12.9 0.00 0.00 0.00 63 1014.8
20260509183526 25 229 6.4 9.7 0.00 0.00 0.00 63 1014.9
20260509182520 25 229 9.7 14.5 0.00 0.00 0.00 63 1015.0
20260509181527 25 205 9.7 16.1 0.00 0.00 0.00 63 1015.1
20260509180607 25 216 8.0 12.9 0.00 0.00 0.00 64 1015.2
20260509175528 23 241 8.0 11.3 0.00 0.00 0.00 66 1015.3
20260509174524 23 191 6.4 12.9 0.00 0.00 0.00 67 1015.1
20260509173529 23 233 11.3 17.7 0.00 0.00 0.00 67 1015.2
20260509172523 24 236 6.4 9.7 0.00 0.00 0.00 67 1015.3
20260509171530 24 218 6.4 9.7 0.00 0.00 0.00 66 1015.3
20260509170526 23 285 8.0 11.3 0.00 0.00 0.00 67 1015.4
20260509165530 22 213 6.4 12.9 0.00 0.00 0.00 71 1015.4
20260509164605 22 234 8.0 11.3 0.00 0.00 0.00 73 1015.8
20260509163520 22 202 8.0 12.9 0.00 0.00 0.00 73 1015.8
20260509162526 21 187 6.4 9.7 0.00 0.00 0.00 77 1015.9
20260509161524 20 243 6.4 9.7 0.00 0.00 0.00 78 1015.9
20260509160528 20 222 6.4 11.3 0.00 0.00 0.00 79 1015.9
20260509155543 20 165 8.0 12.9 0.00 0.00 0.00 79 1015.9
20260509154549 21 145 9.7 14.5 0.00 0.00 0.00 76 1015.9